アトラス彗星

C/2022 O1 ( ATLAS )

English version
Home page
Updated on September 4, 2024

---------------------------------------------------------------------

・ プロフィール

発見日 2022年7月26日
発見光度 19.3等
発見者 Asteroid Terrestrial-Impact Last Alert System (ATLAS) search program

・ 軌道要素

Epoch 2023 Sept. 13.0 TT = JDT 2460200.5
T 2022 Feb. 15.88678 TT                                 Rudenko
q   7.4312788            (2000.0)            P               Q
z  -0.0005152      Peri.  268.91529     +0.23634298     +0.64848282
 +/-0.0000004      Node    49.91731     +0.17094615     +0.70534272
e   1.0038290      Incl.   71.04122     -0.95651420     +0.28628952
>From 191 observations 2022 July 26-2023 Dec. 15, mean residual 0".5.

・ 光度変化

        m1 = 5.5 + 5 logΔ + 10.0 log r

---------------------------------------------------------------------

軌道要素はM.P.E.C. 2024-A43に掲載されたものです。
光度グラフはComet for Windowsで作成したものです。

---------------------------------------------------------------------

Copyright(C) Seiichi Yoshida (comet@aerith.net). All rights reserved.